TimeEDT,TemperatureF,Dew PointF,Humidity,Sea Level PressureIn,VisibilityMPH,Wind Direction,Wind SpeedMPH,Gust SpeedMPH,PrecipitationIn,Events,Conditions,WindDirDegrees,DateUTC
12:53 AM,41.0,39.0,93,30.02,7.0,Calm,Calm,-,N/A,,Clear,0,2012-10-10 04:53:00
1:53 AM,42.1,39.9,92,30.01,10.0,Calm,Calm,-,N/A,,Overcast,0,2012-10-10 05:53:00
2:53 AM,43.0,42.1,97,30.00,10.0,Calm,Calm,-,N/A,,Overcast,0,2012-10-10 06:53:00
3:53 AM,45.0,42.1,90,29.99,10.0,Calm,Calm,-,N/A,,Overcast,0,2012-10-10 07:53:00
4:53 AM,45.0,43.0,93,30.00,10.0,Calm,Calm,-,N/A,,Overcast,0,2012-10-10 08:53:00
5:53 AM,46.9,43.0,86,30.00,10.0,SSW,5.8,-,N/A,,Overcast,200,2012-10-10 09:53:00
6:53 AM,46.9,43.0,86,30.00,10.0,South,5.8,-,0.01,,Scattered Clouds,180,2012-10-10 10:53:00
7:53 AM,46.9,43.0,86,30.00,10.0,South,4.6,-,N/A,,Scattered Clouds,190,2012-10-10 11:53:00
8:53 AM,50.0,45.0,83,30.00,10.0,SW,10.4,-,N/A,,Overcast,220,2012-10-10 12:53:00
9:53 AM,53.1,46.9,80,30.00,10.0,SW,9.2,-,N/A,,Overcast,220,2012-10-10 13:53:00
10:53 AM,54.0,46.0,75,29.99,10.0,SW,11.5,-,N/A,,Overcast,230,2012-10-10 14:53:00
11:53 AM,57.9,46.9,67,29.98,10.0,SW,12.7,19.6,N/A,,Overcast,230,2012-10-10 15:53:00
12:11 PM,57.2,46.4,67,29.99,10.0,SW,16.1,20.7,N/A,,Overcast,230,2012-10-10 16:11:00
12:53 PM,57.0,45.0,64,29.97,10.0,WSW,15.0,-,N/A,,Overcast,250,2012-10-10 16:53:00
1:27 PM,55.4,44.6,67,29.97,10.0,WSW,12.7,19.6,N/A,,Overcast,240,2012-10-10 17:27:00
1:53 PM,55.9,45.0,67,29.96,10.0,West,11.5,19.6,N/A,,Overcast,270,2012-10-10 17:53:00
2:53 PM,54.0,45.0,72,29.97,10.0,West,13.8,20.7,N/A,,Overcast,270,2012-10-10 18:53:00
3:53 PM,52.0,45.0,77,29.99,9.0,West,12.7,19.6,N/A,,Overcast,270,2012-10-10 19:53:00
4:16 PM,53.6,44.6,72,30.00,10.0,West,11.5,16.1,N/A,,Overcast,260,2012-10-10 20:16:00
4:53 PM,55.0,43.0,64,30.00,10.0,West,10.4,19.6,N/A,,Partly Cloudy,260,2012-10-10 20:53:00
5:53 PM,55.0,39.9,57,30.01,10.0,West,9.2,-,N/A,,Clear,260,2012-10-10 21:53:00
6:53 PM,52.0,35.1,53,30.05,10.0,West,9.2,-,N/A,,Clear,270,2012-10-10 22:53:00
7:53 PM,50.0,34.0,54,30.07,10.0,West,6.9,-,N/A,,Clear,280,2012-10-10 23:53:00
8:53 PM,48.0,33.1,56,30.10,10.0,West,5.8,-,N/A,,Clear,270,2012-10-11 00:53:00
9:53 PM,48.0,32.0,54,30.13,10.0,West,5.8,-,N/A,,Partly Cloudy,270,2012-10-11 01:53:00
10:53 PM,46.9,30.9,54,30.17,10.0,WNW,12.7,-,N/A,,Mostly Cloudy,300,2012-10-11 02:53:00
11:53 PM,45.0,30.0,56,30.19,10.0,NW,9.2,17.3,N/A,,Clear,310,2012-10-11 03:53:00